Showing default

JILIN-01 KUANFU 02B 4, 61192

Orbit data source: Space-Track

JILIN-01 KUANFU 02B 4, 61192 is a payload satellite owned by Changguang WJ (CN) in SSO that was launched on Fri, 20 Sep 2024 UTC via a CHANG ZHENG 2D launch vehicle from the Taiyaun Space Center, China (TSC). Payload-class satellites include a variety of spacecraft equipped with specific instruments for various scientific and technological missions. These include communications satellites like Starlink; space stations such as the ISS; scientific satellites like the Hubble; Earth observation satellites from companies like Planet Labs, Umbra, and HawkEye 360; GPS; miniature CubeSats for education and research; and military/defense satellites.

Loading next visibility...
Identifier
61192, 2024-169D
Orbit
SSO
Country
Flag of CNCN / PRC
Related business
Manufacturer
HARB/CGSTL
Mission
Operational Commercial Imaging
Bus & Motor
JL-1, Unknown motor
Mass
230 kg wet, ~200 kg dry
Launch date (UTC)
2024-09-20 (2 years ago)
Launch vehicle
CHANG ZHENG 2D
Launch site
Taiyaun Space Center, China (TSC)
Object type
Payload
Rocket body
Debris
Shape & HBR
Box + 2 Pan, 0.8 m
Radar Cross Section
0.514 m², Large (>1 m²)

Expand to show TLE details & history
Last TLE update: 5 hours ago

TLE from 5 hours ago
0 JILIN-01 KUANFU 02B 4
1 61192U 24169D   26163.82918242  .00003313  00000-0  21430-3 0  9998
2 61192  97.5531 252.7770 0011718 281.0549  78.9361 15.08830368 95176
Epoch: 2026-06-12T19:54Z
TLE epoch observation values (Epoch: 2026-06-12T19:54:01.361Z)
Latitude
-0.00006°
Longitude
53.11832°
Altitude
541.297 km
Speed
7.593 km/s
True Right ascension
16h 51m 06s
True Declination
0° 00' 00"
Sunlit
Object was in full shadow at epoch
Visualization orbit readout
Latitude
Unknown
Longitude
Unknown
Altitude
Unknown
Speed
Unknown
Apparent Right ascension
Unknown
Apparent Declination
Unknown
Sunlit
N/A
Visualization observer readout
Local Sidereal Time
11:30:04
Azimuth
Unknown
Elevation
Unknown
Doppler factor
Unknown
Orbital elements
Apogee altitude
544.863 km
Perigee altitude
528.657 km
Semi-major axis
6,914.897 km
Eccentricity
0.00117
Inclination
97.5531°
RAAN
252.777°
Arg. of periapsis
281.0549°
True anomaly
79.06792°
Mean anomaly
78.9361°
Eccentric anomaly
79.00201°
Mean motion
3.77454 °/min
Orbital period
95.38 mins
BSTAR
0.0002143
Loading maneuver chart data...
Computing Atmospheric mass density...
Loading historical data...
Loading historical data...
Loading historical data...
Loading historical data...
Loading historical data...
Loading historical data...
Loading historical data...

Documentation

Showing up to 5 results
|